MPEC 2005-F42 : 2002 MC

The following Minor Planet Electronic Circular may be linked-to from your own Web pages, but must not otherwise be redistributed electronically.


Read MPEC 2005-F41 Read MPEC 2005-F43


M.P.E.C. 2005-F42                                Issued 2005 Mar. 24, 12:28 UT

     The Minor Planet Electronic Circulars contain information on unusual
         minor planets and routine data on comets.  They are published
   on behalf of Commission 20 of the International Astronomical Union by the
          Minor Planet Center, Smithsonian Astrophysical Observatory,
                          Cambridge, MA 02138, U.S.A.

                  Supported in part by the Brinson Foundation
             Prepared using the Tamkin Foundation Computer Network

                              MPC@CFA.HARVARD.EDU
          URL http://cfa-www.harvard.edu/iau/mpc.html  ISSN 1523-6714

                                    2002 MC

                           Revision to MPEC 2002-M11

Additional Observations:
     K02M00C 2C2005 03 05.33472709 51 54.651+12 33 30.26         22.6 R EF042568
     K02M00C 2C2005 03 05.35128609 51 53.845+12 33 37.23         23.0 R EF042568
     K02M00C 2C2005 03 06.28748609 51 09.391+12 40 09.85         22.5 R EF042568
     K02M00C 2C2005 03 06.29142409 51 09.199+12 40 11.52         22.4 R EF042568

Observer details:
568 Mauna Kea.  Observers F. Bernardi, D. J. Tholen.  2.24-m University of
    Hawaii reflector + 8192 CCD.

First and last observations above in comparison with prediction:
Residuals in seconds of arc, reference and Delta-T
050305 568 19.9-  0.2-    050306 568 19.9-  0.5-    MPO 43469   +0.064 day

Orbital elements:
2002 MC
Epoch 2005 Jan. 30.0 TT = JDT 2453400.5                 MPC
M 220.84011              (2000.0)            P               Q
n   0.23824999     Peri.  159.92223     +0.67253501     +0.72389960
a   2.5769983      Node   151.66345     -0.71553749     +0.68911460
e   0.5088862      Incl.   18.91152     -0.18895173     -0.03302173
P   4.14           H   17.4           G   0.15           U   1
Residuals in seconds of arc
020616 704  0.2-  0.3-    020622 118  0.2+  0.2+    020729 151  0.3-  0.8+
020616 704  0.1-  0.1-    020624 649  0.4-  0.7-    020729 151  0.7-  0.2-
020616 704  0.6+  0.1-    020624 649  0.2+  1.1-    020729 151  0.2+  0.9-
020616 704  0.3+  0.2-    020624 649  0.0   1.0-    020729 151  0.0   0.5+
020616 611  0.2-  0.1+    020628 540  0.1-  0.1-    020804 157  0.1-  0.3+
020616 611  0.0   0.1+    020628 540  0.4-  0.0     020804 157  0.0   0.7+
020616 611  0.2+  0.1+    020628 540  0.2-  0.1+    020805 113  0.2-  0.1-
020616 151  0.5-  1.2+    020628 540  0.3-  0.1-    020805 113  0.2-  0.1+
020616 151  0.3+  0.7+    020628 540  0.0   0.3-    020805 113  0.0   0.1-
020616 151  1.2-  1.6+    020628 540  0.1-  0.2-    020805 113  0.0   0.1-
020616 198  1.0-  0.2+    020629 J95 (3.4-  0.5-)   020805 113  0.0   0.2+
020616 198  1.1-  0.3+    020629 J95  1.0+  0.2-    020806 859  0.4+  1.1+
020616 198  0.5+  0.3+    020629 J95 (2.4-  0.6-)   020806 859  0.6+  0.7+
020616 557  0.5+  0.5+    020629 J95  0.8+  1.7-    020806 859  0.1-  0.6+
020616 557  0.4-  0.1-    020629 611  0.2+  0.1-    020809 704  0.9+  0.3+
020616 557  0.2+  0.2+    020629 611  0.6+  0.4-    020809 704  0.6+  0.6+
020617 557  0.1+  0.0     020629 151 (2.3+  0.3-)   020809 704  0.5+  0.6-
020617 118  0.4+  0.1-    020629 151  0.6+  0.2-    020809 704  1.0+  0.5-
020617 118  0.1+  0.7+    020630 151  0.7+  0.2+    020810 670  0.3-  0.6-
020617 239  0.1+  0.0     020630 151  0.0   0.8-    020810 670  0.7+  0.0
020617 118  0.6+  0.8+    020701 118  0.6+  0.3+    020812 704  0.2+  0.7-
020617 239  0.1+  0.1+    020701 118  0.8-  0.3-    020812 704  0.6+  0.6-
020617 599  0.0   0.0     020705 540  0.1-  0.1+    020812 704  0.3+  0.5-
020617 599  0.7-  0.1-    020705 540  0.0   0.0     020812 704  0.3+  0.6-
020617 599  0.3-  0.0     020705 540  0.1+  0.3-    020812 704  0.0   0.5-
020617 599  0.3-  0.1-    020705 118  0.1-  0.0     020815 151  0.1-  0.2+
020617 599  0.3-  0.3-    020706 118  0.2-  0.3-    020815 151  0.2+  0.1+
020617 649  0.2+  0.1+    020706 118  0.2+  0.0     020815 151  0.1+  0.2+
020617 649  0.1-  0.1-    020707 151  0.1-  0.7-    020815 151  0.2+  0.2+
020617 649  1.1+  0.3+    020707 151  0.4-  0.6+    020815 151  0.3-  0.5+
020617 704  0.2-  0.7+    020707 151  0.1+  0.3-    020815 151  0.1-  0.4+
020617 704  0.2+  0.2+    020707 151  1.8+  0.1-    020815 151  0.4+  0.1-
020617 704  0.4+  0.1-    020708 670  0.8+  0.5+    020815 151  0.6+  0.2+
020617 704  0.1+  0.2+    020708 670  1.1+  0.8+    020818 157  0.3+  0.2+
020617 704  0.7-  0.2-    020714 J95  1.2-  0.5+    020818 157  0.4+  0.9+
020617 704  0.1-  0.0     020714 J95  0.2-  0.1-    020818 157  0.6+  0.7+
020617 704  0.6-  0.5-    020714 J95  0.5-  0.5+    020818 157  0.1-  0.7-
020617 704  0.5-  0.1-    020715 649  0.2-  0.3+    020818 322 (2.1+  1.6+)
020617 704  0.5-  0.3-    020715 649  0.1-  0.4+    020818 322  0.1+  0.0
020618 704  0.3+  0.0     020715 649  0.0   0.3+    020818 322  0.6+  1.9+
020618 704  0.1+  0.3+    020715 670 (0.2-  2.4+)   020828 322  1.1-  0.1-
020618 704  0.5+  0.4+    020715 670  0.1+  1.1+    020828 322  0.2+  1.2-
020618 704  1.3+  0.6+    020716 711  1.3-  0.3+    020828 322  0.1-  0.0
020618 704  0.1-  0.3-    020716 711  0.1-  0.4+    020830 118  0.6+  0.4-
020618 704  0.0   0.1+    020716 848  0.6-  0.2+    020830 118  0.2+  0.4-
020618 704  0.6-  0.0     020716 711 (2.4-  0.6+)   020908 941  0.3+  0.2+
020618 704  0.0   0.2-    020716 848  1.2+  0.2+    020908 941  0.1-  1.2+
020618 704  0.1-  0.3-    020716 848  1.4-  0.5-    020908 941  0.3+  0.7+
020618 704  0.1+  0.1+    020718 704  1.1-  0.7+    020908 941  0.2+  0.0
020619 239  0.2+  0.1-    020718 704  1.0-  0.1+    020908 941  0.2-  0.3-
020619 239 (1.9-  2.3-)   020718 704  0.7-  0.2+    020926 704  0.6-  0.0
020619 649  0.2+  0.2+    020718 704  0.2+  0.7+    020926 704  1.1-  0.1-
020619 649  0.0   0.2+    020720 151  1.1+  0.2-    020926 704  0.9-  0.0
020619 649  0.1-  0.1+    020720 151  0.6-  0.5+    021021 644  0.0   0.5-
020620 704  0.2-  0.7-    020720 151  0.9-  0.4+    021021 644  0.1-  0.5-
020620 704  0.0   0.1-    020720 118  0.4+  0.1+    021021 644  0.2+  0.7-
020620 704  0.9-  0.2+    020720 118  0.7-  0.6+    021103 644  0.1-  0.1+
020620 704  0.1+  0.5-    020720 118  0.1-  0.4+    021103 644  0.6-  0.2-
020620 704  0.3-  0.5-    020723 118  0.1-  0.3-    021103 644  0.4-  0.2-
020622 413  0.1+  0.2-    020723 118  0.2-  0.5-    050305 568  0.0   0.2+
020622 413  0.2+  0.5-    020723 670  1.1+  0.3-    050305 568  0.1+  0.2+
020622 413  0.4+  0.3-    020723 670  0.1+  0.4+    050306 568  0.1-  0.1-
020622 118  0.1+  0.4+    020729 670  0.9-  0.8-    050306 568  0.1-  0.0
020622 118  0.1-  0.2-    020729 670  0.2+  0.4+

Ephemeris:
2002 MC                  a,e,i = 2.58, 0.51, 19                  q = 1.2656
Date    TT    R. A. (2000) Decl.     Delta      r     Elong.  Phase     V
2005 03 21    09 40.87   +14 13.8    2.802    3.642   142.4     9.6    23.1
2005 03 31    09 35.85   +15 04.7    2.884    3.619   131.0    12.0    23.2
2005 04 10    09 32.73   +15 44.0    2.984    3.594   120.3    13.9    23.3
2005 04 20    09 31.63   +16 11.3    3.098    3.569   110.1    15.3    23.5
2005 04 30    09 32.48   +16 27.3    3.219    3.543   100.4    16.2    23.6
2005 05 10    09 35.17   +16 32.7    3.344    3.516    91.3    16.7    23.6
2005 05 20    09 39.51   +16 28.5    3.468    3.487    82.7    16.7    23.7

Timothy B. Spahr             (C) Copyright 2005 MPC           M.P.E.C. 2005-F42

Read MPEC 2005-F41 Read MPEC 2005-F43


Our Web policy. Index to the CBAT/MPC/ICQ pages.

MPC